RH
30 30 31 30 32 28 28 30 34 39 45 39 41 48 52 50 50 52 62 67 74 78 73 61 61 85 92 97 82 75 67 74 66
31 34 36 43 46 40 38 42 49 46 42 43 48 54 62 67 71 80 73 66 60 58 59 70 75 93 95 88 84 87 78 80 67
26 33 40 49 55 57 58 56 56 65 70 66 56 58 57 55 61 67 69 67 76 78 85 100 100 96 87 87 85 85 75 67 64
34 31 29 32 38 47 44 52 58 61 63 70 85 96 94 88 88 87 90 90 91 96 88 100 96 87 90 90 82 73 65 69 62
38 39 41 40 40 40 45 52 57 68 82 88 99 100 100 100 100 100 99 100 94 98 99 99 89 92 74 79 72 78 78 53 66
33 32 37 43 50 52 56 67 80 86 80 82 86 92 97 100 100 100 100 100 97 95 88 92 85 80 71 68 77 78 61 60 63
36 36 41 51 55 64 73 78 85 82 75 64 68 86 89 88 100 100 93 96 93 77 94 86 83 74 79 71 56 52 58 56 57
31 39 46 44 50 60 66 79 74 70 58 59 59 72 70 73 76 74 68 63 75 78 83 91 88 69 60 54 59 56 38 18 23
40 37 38 40 40 44 43 44 49 47 46 44 43 46 47 47 43 42 51 53 40 46 42 36 48 53 72 80 73 36 14 14 28
31 28 27 26 24 24 24 28 31 32 32 32 31 29 27 25 24 21 21 20 20 23 42 42 58 90 90 78 34 16 13 20 33
25 22 23 20 19 18 18 20 20 20 21 21 20 20 19 18 17 18 17 18 18 21 42 43 40 49 40 23 19 16 14 16 25
17 15 15 15 15 15 15 16 15 14 14 15 14 15 16 17 18 19 17 17 17 17 20 19 26 23 19 18 18 18 16 15 30
19 21 18 18 18 18 19 18 18 17 17 16 15 13 14 15 16 16 16 16 16 17 18 19 20 20 20 18 18 17 16 17 29
20 21 22 23 23 19 19 20 21 20 18 16 17 18 18 16 16 16 15 15 16 19 20 21 20 21 20 20 21 19 17 21 32
36 32 30 31 28 29 29 29 29 27 22 19 17 16 17 19 21 22 24 22 22 25 27 25 22 22 25 29 33 25 19 24 34
49 49 36 35 39 36 33 31 28 27 27 24 22 21 20 19 20 25 32 39 36 32 31 30 31 36 39 60 48 29 25 28 36
74 79 82 73 64 47 35 29 29 28 26 27 25 24 26 26 25 27 33 38 44 44 39 44 58 71 82 84 64 34 30 35 40
94 71 57 63 61 54 45 51 53 47 28 26 26 26 25 24 27 30 35 37 44 38 41 51 71 78 79 68 39 33 35 42 46
98 80 70 89 99 73 69 68 40 31 28 28 28 27 27 27 27 26 31 42 41 38 37 46 54 56 59 58 39 37 38 42 45
100 100 100 97 91 79 81 63 43 36 35 36 34 30 30 30 29 31 30 39 44 47 43 46 55 57 65 58 48 52 62 59 51
Wind_Speed
53 53 53 55 56 56 56 57 57 58 58 59 59 60 60 61 62 63 63 64 65 64 65 65 64 62 63 63 66 66 66 64 66
58 59 60 61 61 62 62 62 61 62 63 65 65 65 65 65 65 66 67 67 67 67 66 67 69 69 68 69 68 67 70 68 71
65 64 63 65 65 64 65 66 66 66 67 67 68 70 70 71 70 71 71 72 71 71 71 71 69 70 73 72 70 70 74 76 74
70 68 69 71 72 71 72 72 73 72 73 73 74 75 75 76 76 76 77 77 76 75 74 74 74 75 75 75 76 79 79 79 77
75 76 75 75 76 77 77 77 77 76 76 76 77 79 79 80 80 81 81 81 81 79 77 78 79 81 82 80 80 78 78 78 73
79 79 80 80 80 81 81 81 81 81 81 80 81 82 82 83 83 83 83 84 87 83 84 82 83 83 81 81 81 80 77 70 67
82 83 83 84 83 84 85 85 85 84 85 85 85 85 85 85 85 86 86 85 86 87 83 84 83 84 83 81 76 71 68 69 69
82 83 84 84 85 87 86 85 86 87 85 83 84 85 85 85 86 87 86 86 86 86 85 83 82 83 76 71 68 66 69 68 63
81 82 82 80 80 81 80 81 82 82 81 80 81 82 83 85 84 84 83 83 83 81 79 77 70 70 69 69 65 67 64 61 58
79 79 79 77 77 78 79 82 83 83 82 81 80 81 80 81 81 80 79 77 77 76 74 72 69 69 67 66 66 63 60 58 54
75 73 72 71 70 70 71 73 74 75 76 77 76 77 78 78 78 78 76 74 74 73 72 73 70 69 68 65 64 64 61 59 56
70 68 67 66 67 68 69 70 71 72 73 75 76 76 77 78 77 77 76 75 75 75 74 72 70 70 68 67 66 65 63 61 56
65 64 64 65 65 66 66 67 69 69 68 69 71 73 76 80 80 79 79 79 78 78 76 75 74 72 71 70 67 67 65 62 59
64 64 65 67 66 68 67 67 67 67 65 65 66 68 69 72 76 78 79 79 79 77 77 76 75 75 74 72 71 70 67 64 60
61 61 62 62 62 64 65 65 66 67 66 66 67 67 67 69 71 73 74 74 74 74 74 75 75 75 75 74 73 72 69 66 61
60 61 62 61 60 62 63 64 65 66 67 67 67 67 68 68 70 72 73 71 73 74 74 74 73 72 72 72 73 72 69 67 64
59 57 58 58 60 61 61 63 63 63 63 65 68 70 68 67 70 70 71 70 69 71 72 71 70 70 71 72 74 74 72 70 69
59 60 61 60 61 63 63 60 57 59 61 60 62 65 67 67 69 71 73 71 71 72 71 69 69 70 71 73 74 75 75 73 73
61 61 60 59 57 60 56 58 61 63 62 60 60 62 63 65 66 69 70 73 74 73 71 70 71 71 72 73 73 75 75 76 76
60 61 63 62 63 58 59 61 62 63 64 62 62 61 62 63 64 68 70 73 75 76 76 74 74 74 74 74 75 75 76 78 80
Wind_Direction
263 263 263 265 267 266 267 269 270 271 270 271 272 273 273 274 276 278 280 283 284 285 286 289 292 292 293 293 293 294 295 296 298
264 264 264 265 266 266 266 267 268 271 272 273 274 276 275 275 277 278 279 281 284 287 289 290 290 289 290 290 292 294 295 297 299
265 265 265 265 266 267 268 270 271 273 274 275 275 276 277 279 279 281 283 284 286 287 288 289 289 288 290 292 293 293 295 296 296
270 269 269 270 270 268 269 270 271 273 274 275 277 278 279 279 280 281 283 284 285 286 287 288 288 291 292 291 292 293 293 293 295
271 271 272 271 270 270 269 270 272 273 274 275 276 276 278 279 280 283 284 285 285 286 287 286 288 288 290 290 291 292 292 293 290
271 272 272 272 272 272 271 271 272 273 274 274 275 276 276 278 280 281 282 283 284 286 285 285 288 288 289 291 291 289 289 291 289
271 272 272 273 273 273 273 272 273 273 274 275 276 275 275 276 278 279 280 281 282 284 285 285 286 289 289 290 289 288 289 288 286
271 271 272 273 273 273 274 275 275 275 276 275 276 276 276 277 277 279 281 282 281 282 285 285 285 286 287 286 288 287 289 289 287
270 270 271 273 274 274 275 274 273 274 274 275 276 276 277 277 278 279 279 281 282 282 283 286 284 287 286 287 288 288 290 290 288
268 269 271 272 273 273 274 274 275 275 276 275 276 277 278 278 280 280 280 281 282 283 284 286 287 287 286 286 287 288 288 289 288
269 270 271 271 271 272 273 274 275 276 276 277 278 278 279 279 280 281 282 284 285 285 284 285 285 285 285 285 286 287 288 289 287
270 271 271 272 272 272 273 274 275 275 275 277 277 277 278 278 279 280 281 282 283 284 283 285 283 284 286 284 285 285 286 288 286
270 271 272 272 272 273 273 273 274 274 274 275 276 277 276 277 278 278 279 280 280 281 282 282 281 282 282 283 283 284 284 286 283
270 272 272 272 273 274 274 274 276 277 277 277 277 277 276 277 276 277 278 278 279 279 280 280 280 280 280 281 281 282 282 282 281
272 272 272 273 273 273 273 274 276 276 277 277 277 277 277 277 277 278 279 279 281 282 281 279 278 278 279 279 279 279 279 280 279
274 274 274 274 273 275 276 276 277 276 275 275 276 277 277 276 277 277 278 278 277 279 278 277 279 280 280 278 277 278 277 278 275
273 273 275 276 276 275 275 277 278 278 277 278 277 275 275 276 276 277 278 278 278 278 277 278 278 278 278 277 277 278 278 276 276
273 275 276 279 278 277 276 277 280 277 280 281 280 278 278 278 277 277 277 278 277 277 277 278 276 274 276 276 277 277 277 277 276
273 275 275 275 276 279 279 280 285 284 284 282 283 283 282 280 280 280 279 279 278 277 276 275 275 275 277 277 277 277 278 278 278
267 269 272 272 274 275 278 282 288 287 287 287 285 285 284 284 282 281 281 280 279 279 279 278 278 279 280 280 280 281 281 281 281